Time,TemperatureF,DewpointF,PressureIn,WindDirection,WindDirectionDegrees,WindSpeedMPH,WindSpeedGustMPH,Humidity,HourlyPrecipIn,Conditions,Clouds,dailyrainin,SoftwareType,DateUTC
2013-04-20 00:01:00,47.0,46.0,30.14,SSW,197,3.0,7.0,96,0.05,,,0.52,,2013-04-20 07:01:00,
2013-04-20 00:11:00,47.0,46.0,30.14,SSW,197,3.0,7.0,96,0.05,,,0.52,,2013-04-20 07:11:00,
2013-04-20 00:21:00,47.0,46.0,30.15,South,181,3.0,9.0,96,0.04,,,0.51,,2013-04-20 07:21:00,
2013-04-20 00:31:00,47.0,46.0,30.15,SSW,192,3.0,11.0,96,0.02,,,0.50,,2013-04-20 07:31:00,
2013-04-20 00:42:00,47.0,46.0,30.15,South,184,2.0,7.0,95,0.00,,,0.50,,2013-04-20 07:42:00,
2013-04-20 00:52:00,47.0,46.0,30.15,South,184,2.0,7.0,95,0.00,,,0.50,,2013-04-20 07:52:00,
2013-04-20 01:01:00,47.0,46.0,30.15,SSW,195,3.0,7.0,95,0.00,,,0.50,,2013-04-20 08:01:00,
2013-04-20 01:11:00,47.0,46.0,30.15,SSW,195,3.0,7.0,95,0.00,,,0.50,,2013-04-20 08:11:00,
2013-04-20 01:21:00,47.0,45.0,30.16,South,190,3.0,10.0,94,0.00,,,0.50,,2013-04-20 08:21:00,
2013-04-20 01:31:00,47.0,45.0,30.16,South,189,5.0,10.0,94,0.00,,,0.50,,2013-04-20 08:31:00,
2013-04-20 01:42:00,47.0,45.0,30.16,South,189,5.0,10.0,94,0.00,,,0.50,,2013-04-20 08:42:00,
2013-04-20 01:52:00,47.0,45.0,30.15,South,184,5.0,11.0,94,0.00,,,0.50,,2013-04-20 08:52:00,
2013-04-20 02:01:00,47.0,45.0,30.15,South,184,4.0,10.0,94,0.00,,,0.50,,2013-04-20 09:01:00,
2013-04-20 02:11:00,47.0,45.0,30.15,South,186,4.0,15.0,93,0.00,,,0.50,,2013-04-20 09:11:00,
2013-04-20 02:21:00,47.0,45.0,30.15,South,186,4.0,15.0,93,0.00,,,0.50,,2013-04-20 09:21:00,
2013-04-20 02:32:00,47.0,45.0,30.15,South,187,5.0,8.0,93,0.00,,,0.50,,2013-04-20 09:32:00,
2013-04-20 02:43:00,47.0,45.0,30.15,South,175,4.0,11.0,93,0.00,,,0.50,,2013-04-20 09:43:00,
2013-04-20 02:53:00,47.0,45.0,30.15,South,175,4.0,11.0,93,0.00,,,0.50,,2013-04-20 09:53:00,
2013-04-20 03:02:00,47.0,45.0,30.16,South,188,4.0,11.0,92,0.00,,,0.50,,2013-04-20 10:02:00,
2013-04-20 03:12:00,47.0,45.0,30.16,South,188,4.0,11.0,92,0.00,,,0.50,,2013-04-20 10:12:00,
2013-04-20 03:22:00,47.0,45.0,30.15,South,182,5.0,15.0,92,0.00,,,0.50,,2013-04-20 10:22:00,
2013-04-20 03:32:00,46.0,44.0,30.15,South,188,4.0,10.0,92,0.00,,,0.50,,2013-04-20 10:32:00,
2013-04-20 03:42:00,46.0,44.0,30.16,South,188,3.0,10.0,92,0.00,,,0.50,,2013-04-20 10:42:00,
2013-04-20 03:52:00,46.0,44.0,30.16,South,188,3.0,10.0,92,0.00,,,0.50,,2013-04-20 10:52:00,
2013-04-20 04:02:00,46.0,44.0,30.16,SSW,210,3.0,12.0,92,0.00,,,0.50,,2013-04-20 11:02:00,
2013-04-20 04:12:00,46.0,44.0,30.16,SSW,211,3.0,9.0,92,0.00,,,0.50,,2013-04-20 11:12:00,
2013-04-20 04:22:00,46.0,44.0,30.16,SSW,211,3.0,9.0,92,0.00,,,0.50,,2013-04-20 11:22:00,
2013-04-20 04:31:00,46.0,44.0,30.16,South,184,4.0,11.0,92,0.01,,,0.51,,2013-04-20 11:31:00,
2013-04-20 04:42:00,46.0,44.0,30.16,South,184,4.0,11.0,92,0.01,,,0.51,,2013-04-20 11:42:00,
2013-04-20 04:52:00,46.0,44.0,30.16,South,183,3.0,9.0,92,0.01,,,0.51,,2013-04-20 11:52:00,
2013-04-20 05:01:00,46.0,44.0,30.17,South,182,4.0,10.0,92,0.01,,,0.51,,2013-04-20 12:01:00,
2013-04-20 05:11:00,46.0,44.0,30.17,South,182,4.0,10.0,92,0.01,,,0.51,,2013-04-20 12:11:00,
2013-04-20 05:22:00,46.0,44.0,30.17,South,173,4.0,10.0,92,0.00,,,0.51,,2013-04-20 12:22:00,
2013-04-20 05:32:00,46.0,44.0,30.17,SSW,197,3.0,10.0,92,0.00,,,0.51,,2013-04-20 12:32:00,
2013-04-20 05:41:00,46.0,44.0,30.17,SSW,197,3.0,10.0,92,0.00,,,0.51,,2013-04-20 12:41:00,
2013-04-20 05:52:00,46.0,44.0,30.17,SSW,192,2.0,10.0,92,0.00,,,0.51,,2013-04-20 12:52:00,
2013-04-20 06:02:00,46.0,44.0,30.17,South,190,5.0,16.0,92,0.00,,,0.51,,2013-04-20 13:02:00,
2013-04-20 06:11:00,46.0,-99.9,30.18,North,-999,-999.0,5.0,-999,0.00,,,0.51,,2013-04-20 13:11:00,
2013-04-20 06:22:00,46.0,-99.9,30.18,North,-999,-999.0,5.0,-999,0.00,,,0.51,,2013-04-20 13:22:00,
2013-04-20 08:21:00,46.0,43.0,30.19,SSW,196,6.0,12.0,90,0.00,,,0.51,,2013-04-20 15:21:00,
2013-04-20 08:33:00,46.0,44.0,30.20,South,174,4.0,7.0,91,0.00,,,0.50,,2013-04-20 15:33:00,
2013-04-20 08:43:00,46.0,43.0,30.20,SSW,196,4.0,11.0,90,0.00,,,0.49,,2013-04-20 15:43:00,
2013-04-20 08:53:00,46.0,43.0,30.20,SSW,196,4.0,11.0,90,0.00,,,0.49,,2013-04-20 15:53:00,
2013-04-20 09:03:00,46.0,43.0,30.20,South,177,3.0,9.0,90,0.00,,,0.48,,2013-04-20 16:03:00,
2013-04-20 09:12:00,46.0,43.0,30.20,SSW,199,2.0,9.0,89,0.00,,,0.47,,2013-04-20 16:12:00,
2013-04-20 09:23:00,46.0,43.0,30.20,SSW,199,2.0,9.0,89,0.00,,,0.47,,2013-04-20 16:23:00,
2013-04-20 09:32:00,47.0,44.0,30.21,South,172,1.0,5.0,89,0.00,,,0.45,,2013-04-20 16:32:00,
2013-04-20 09:42:00,47.0,44.0,30.20,SSW,213,2.0,6.0,89,0.00,,,0.43,,2013-04-20 16:42:00,
2013-04-20 09:52:00,47.0,44.0,30.20,SSW,213,2.0,6.0,89,0.00,,,0.43,,2013-04-20 16:52:00,
2013-04-20 10:02:00,47.0,44.0,30.20,North,0,0.0,6.0,88,0.00,,,0.42,,2013-04-20 17:02:00,
2013-04-20 10:11:00,48.0,45.0,30.21,SSW,199,2.0,4.0,88,0.00,,,0.40,,2013-04-20 17:11:00,
2013-04-20 10:22:00,48.0,45.0,30.21,SSW,199,2.0,4.0,88,0.00,,,0.40,,2013-04-20 17:22:00,
2013-04-20 10:32:00,48.0,45.0,30.21,SW,217,2.0,6.0,88,0.00,,,0.37,,2013-04-20 17:32:00,
2013-04-20 10:42:00,48.0,45.0,30.21,SW,217,2.0,6.0,88,0.00,,,0.37,,2013-04-20 17:42:00,
2013-04-20 10:52:00,48.0,45.0,30.22,South,178,1.0,5.0,88,0.00,,,0.35,,2013-04-20 17:52:00,
2013-04-20 11:01:00,49.0,46.0,30.22,SSE,167,1.0,5.0,88,0.00,,,0.33,,2013-04-20 18:01:00,
2013-04-20 11:12:00,50.0,45.0,30.22,South,171,3.0,5.0,84,0.00,,,0.31,,2013-04-20 18:12:00,
2013-04-20 11:22:00,50.0,45.0,30.22,South,171,3.0,5.0,84,0.00,,,0.31,,2013-04-20 18:22:00,
2013-04-20 11:32:00,51.0,45.0,30.22,SW,215,4.0,7.0,80,0.00,,,0.29,,2013-04-20 18:32:00,
2013-04-20 11:41:00,51.0,45.0,30.22,SW,215,4.0,7.0,80,0.00,,,0.29,,2013-04-20 18:41:00,
2013-04-20 11:52:00,52.0,46.0,30.23,SSW,207,2.0,7.0,80,0.00,,,0.28,,2013-04-20 18:52:00,
2013-04-20 12:01:00,52.0,45.0,30.23,South,190,2.0,7.0,77,0.00,,,0.28,,2013-04-20 19:01:00,
2013-04-20 12:11:00,52.0,46.0,30.23,South,184,1.0,5.0,79,0.00,,,0.26,,2013-04-20 19:11:00,
2013-04-20 12:21:00,52.0,46.0,30.23,South,184,1.0,5.0,79,0.00,,,0.26,,2013-04-20 19:21:00,
2013-04-20 12:31:00,53.0,46.0,30.23,SSW,205,2.0,5.0,76,0.00,,,0.25,,2013-04-20 19:31:00,
2013-04-20 12:41:00,54.0,46.0,30.23,SSW,209,2.0,5.0,75,0.00,,,0.24,,2013-04-20 19:41:00,
2013-04-20 12:52:00,54.0,46.0,30.23,SSW,209,2.0,5.0,75,0.00,,,0.24,,2013-04-20 19:52:00,
2013-04-20 13:01:00,55.0,47.0,30.22,South,183,1.0,7.0,74,0.00,,,0.24,,2013-04-20 20:01:00,
2013-04-20 13:11:00,55.0,45.0,30.22,SSW,204,3.0,10.0,70,0.00,,,0.24,,2013-04-20 20:11:00,
2013-04-20 13:21:00,55.0,45.0,30.22,SSW,204,3.0,10.0,70,0.00,,,0.24,,2013-04-20 20:21:00,
2013-04-20 13:32:00,55.0,45.0,30.21,SSW,212,3.0,10.0,70,0.00,,,0.24,,2013-04-20 20:32:00,
2013-04-20 13:42:00,55.0,45.0,30.21,SSW,212,3.0,10.0,70,0.00,,,0.24,,2013-04-20 20:42:00,
2013-04-20 13:52:00,55.0,45.0,30.21,South,177,4.0,10.0,70,0.00,,,0.23,,2013-04-20 20:52:00,
2013-04-20 14:01:00,54.0,45.0,30.21,SSW,194,2.0,8.0,71,0.00,,,0.23,,2013-04-20 21:01:00,
2013-04-20 14:12:00,54.0,44.0,30.21,South,184,3.0,8.0,70,0.00,,,0.23,,2013-04-20 21:12:00,
2013-04-20 14:21:00,54.0,44.0,30.21,South,184,3.0,8.0,70,0.00,,,0.23,,2013-04-20 21:21:00,
2013-04-20 14:32:00,55.0,45.0,30.20,South,184,3.0,7.0,69,0.00,,,0.22,,2013-04-20 21:32:00,
2013-04-20 14:42:00,55.0,45.0,30.20,South,184,3.0,7.0,69,0.00,,,0.22,,2013-04-20 21:42:00,
2013-04-20 14:52:00,56.0,45.0,30.20,South,171,3.0,10.0,66,0.00,,,0.22,,2013-04-20 21:52:00,
2013-04-20 15:02:00,55.0,46.0,30.20,South,176,1.0,8.0,72,0.00,,,0.21,,2013-04-20 22:02:00,
2013-04-20 15:12:00,55.0,46.0,30.21,SSE,155,2.0,5.0,71,0.00,,,0.21,,2013-04-20 22:12:00,
2013-04-20 15:22:00,55.0,46.0,30.21,SSE,155,2.0,5.0,71,0.00,,,0.21,,2013-04-20 22:22:00,
2013-04-20 15:32:00,55.0,46.0,30.21,South,191,3.0,6.0,72,0.00,,,0.21,,2013-04-20 22:32:00,
2013-04-20 15:41:00,55.0,46.0,30.21,South,191,3.0,6.0,72,0.00,,,0.21,,2013-04-20 22:41:00,
2013-04-20 15:52:00,54.0,47.0,30.21,North,0,0.0,2.0,78,0.01,,,0.22,,2013-04-20 22:52:00,
2013-04-20 16:02:00,53.0,47.0,30.21,SSE,152,1.0,6.0,80,0.02,,,0.23,,2013-04-20 23:02:00,
2013-04-20 16:11:00,53.0,47.0,30.20,ESE,109,1.0,4.0,81,0.02,,,0.23,,2013-04-20 23:11:00,
2013-04-20 16:22:00,53.0,47.0,30.20,ESE,109,1.0,4.0,81,0.02,,,0.23,,2013-04-20 23:22:00,
2013-04-20 16:31:00,53.0,48.0,30.20,ESE,116,1.0,3.0,83,0.02,,,0.23,,2013-04-20 23:31:00,
2013-04-20 16:41:00,53.0,48.0,30.20,ESE,116,1.0,3.0,83,0.02,,,0.23,,2013-04-20 23:41:00,
2013-04-20 16:52:00,53.0,47.0,30.20,ESE,111,2.0,6.0,81,0.01,,,0.22,,2013-04-20 23:52:00,
2013-04-20 17:01:00,53.0,48.0,30.20,North,0,0.0,2.0,83,0.00,,,0.20,,2013-04-21 00:01:00,
2013-04-20 17:11:00,53.0,48.0,30.20,North,0,0.0,2.0,83,0.00,,,0.20,,2013-04-21 00:11:00,
2013-04-20 17:21:00,52.0,47.0,30.19,ENE,78,2.0,4.0,84,0.02,,,0.21,,2013-04-21 00:21:00,
2013-04-20 17:31:00,51.0,48.0,30.19,NNE,33,2.0,4.0,88,0.02,,,0.21,,2013-04-21 00:31:00,
2013-04-20 17:41:00,51.0,48.0,30.19,NNE,33,2.0,4.0,88,0.02,,,0.21,,2013-04-21 00:41:00,
2013-04-20 17:52:00,51.0,48.0,30.19,East,80,2.0,5.0,90,0.04,,,0.23,,2013-04-21 00:52:00,
2013-04-20 18:01:00,51.0,49.0,30.18,North,352,1.0,3.0,92,0.05,,,0.23,,2013-04-21 01:01:00,
2013-04-20 18:11:00,51.0,49.0,30.18,North,352,1.0,3.0,92,0.05,,,0.23,,2013-04-21 01:11:00,
2013-04-20 18:21:00,51.0,49.0,30.18,ENE,76,1.0,5.0,92,0.03,,,0.23,,2013-04-21 01:21:00,
2013-04-20 18:31:00,51.0,49.0,30.18,ENE,77,1.0,4.0,93,0.03,,,0.23,,2013-04-21 01:31:00,
2013-04-20 18:41:00,51.0,49.0,30.18,ENE,77,1.0,4.0,93,0.03,,,0.23,,2013-04-21 01:41:00,
2013-04-20 18:52:00,51.0,49.0,30.18,ENE,62,2.0,4.0,92,0.01,,,0.23,,2013-04-21 01:52:00,
2013-04-20 19:01:00,51.0,49.0,30.18,ENE,62,2.0,4.0,92,0.01,,,0.23,,2013-04-21 02:01:00,
2013-04-20 19:11:00,51.0,49.0,30.18,ENE,62,2.0,4.0,92,0.01,,,0.23,,2013-04-21 02:11:00,
2013-04-20 19:21:00,51.0,49.0,30.18,North,0,0.0,1.0,92,0.00,,,0.20,,2013-04-21 02:21:00,
2013-04-20 19:31:00,50.0,48.0,30.18,SSE,165,1.0,5.0,92,0.00,,,0.15,,2013-04-21 02:31:00,
2013-04-20 19:41:00,50.0,48.0,30.18,SSE,165,1.0,5.0,92,0.00,,,0.15,,2013-04-21 02:41:00,
2013-04-20 19:52:00,50.0,47.0,30.18,NW,314,6.0,12.0,91,0.00,,,0.15,,2013-04-21 02:52:00,
2013-04-20 20:01:00,49.0,47.0,30.19,North,352,3.0,9.0,92,0.00,,,0.15,,2013-04-21 03:01:00,
2013-04-20 20:11:00,49.0,47.0,30.19,North,352,3.0,9.0,92,0.00,,,0.15,,2013-04-21 03:11:00,
2013-04-20 20:21:00,48.0,46.0,30.19,NE,36,3.0,11.0,92,0.00,,,0.15,,2013-04-21 03:21:00,
2013-04-20 20:32:00,48.0,46.0,30.19,ENE,64,2.0,7.0,93,0.01,,,0.16,,2013-04-21 03:32:00,
2013-04-20 20:42:00,48.0,46.0,30.19,ENE,64,2.0,7.0,93,0.01,,,0.16,,2013-04-21 03:42:00,
2013-04-20 20:52:00,48.0,46.0,30.19,NNE,26,2.0,5.0,93,0.01,,,0.16,,2013-04-21 03:52:00,
2013-04-20 21:02:00,47.0,45.0,30.20,NNE,12,2.0,5.0,94,0.01,,,0.15,,2013-04-21 04:02:00,
2013-04-20 21:12:00,47.0,45.0,30.20,ENE,78,2.0,5.0,94,0.01,,,0.15,,2013-04-21 04:12:00,
2013-04-20 21:22:00,47.0,45.0,30.20,ENE,78,2.0,5.0,94,0.01,,,0.15,,2013-04-21 04:22:00,
2013-04-20 21:32:00,47.0,45.0,30.21,ENE,75,2.0,7.0,94,0.00,,,0.14,,2013-04-21 04:32:00,
2013-04-20 21:42:00,47.0,45.0,30.21,ENE,75,2.0,7.0,94,0.00,,,0.14,,2013-04-21 04:42:00,
2013-04-20 21:53:00,47.0,46.0,30.21,ENE,78,1.0,5.0,95,0.00,,,0.14,,2013-04-21 04:53:00,
2013-04-20 22:02:00,47.0,46.0,30.21,NNE,13,1.0,5.0,95,0.01,,,0.15,,2013-04-21 05:02:00,
2013-04-20 22:12:00,47.0,46.0,30.21,NNE,13,1.0,5.0,95,0.01,,,0.15,,2013-04-21 05:12:00,
2013-04-20 22:21:00,47.0,46.0,30.22,ENE,67,3.0,7.0,95,0.02,,,0.16,,2013-04-21 05:21:00,
2013-04-20 22:32:00,47.0,46.0,30.22,ENE,73,1.0,7.0,95,0.02,,,0.16,,2013-04-21 05:32:00,
2013-04-20 22:42:00,47.0,46.0,30.22,ENE,73,1.0,7.0,95,0.02,,,0.16,,2013-04-21 05:42:00,
2013-04-20 22:52:00,46.0,45.0,30.21,East,96,2.0,6.0,96,0.01,,,0.16,,2013-04-21 05:52:00,
2013-04-20 23:01:00,46.0,45.0,30.22,East,79,3.0,9.0,96,0.02,,,0.17,,2013-04-21 06:01:00,
2013-04-20 23:11:00,46.0,45.0,30.22,ENE,64,2.0,5.0,96,0.01,,,0.16,,2013-04-21 06:11:00,
2013-04-20 23:21:00,46.0,45.0,30.22,ENE,64,2.0,5.0,96,0.01,,,0.16,,2013-04-21 06:21:00,
2013-04-20 23:32:00,47.0,46.0,30.22,North,0,0.0,4.0,96,0.01,,,0.13,,2013-04-21 06:32:00,
2013-04-20 23:42:00,47.0,46.0,30.22,North,0,0.0,4.0,96,0.01,,,0.13,,2013-04-21 06:42:00,
2013-04-20 23:52:00,47.0,46.0,30.22,North,0,0.0,4.0,96,0.02,,,0.13,,2013-04-21 06:52:00,